Home   Weather   Pulheim   Past weeks

Flag for Germany Past Weather in Pulheim, North Rhine-Westphalia, Germany — Yesterday and Last 2 Weeks

Now
37 °F

Chilly.


Feels Like: 32 °F
Forecast: 19 / 29 °F
Wind: 7 mph from East

Location: Noervenich

Current Time: Jan 21, 2017 at 4:27:09 pm

Latest Report: Jan 21, 2017 at 3:20 pm


Visibility: N/A

Pressure: 30.36 "Hg

Humidity: 56%

Dew Point: 23 °F

Location of PulheimLocation

Past Weather in Pulheim — Graph

°F

Pulheim Temperature Yesterday

Maximum temperature yesterday: 37 °F (at 2:20 pm)
Minimum temperature yesterday: 16 °F (at 5:20 am)
Average temperature yesterday: 25 °F

High & Low Weather Summary for the Past Weeks

 TemperatureHumidityPressure
High46 °F (Jan 11, 12:20 pm)100% (Jan 7, 4:20 pm)30.69 "Hg (Jan 7, 4:20 pm)
Low16 °F (Jan 20, 5:20 am)41% (Jan 20, 2:20 pm)28.94 "Hg (Jan 13, 1:20 am)
Average32 °F85%30.18 "Hg
* Reported Jan 6 3:20 pm — Jan 21 3:20 pm, Pulheim, Weather by CustomWeather, © 2017

Note: Actual official high and low records may vary slightly from our data, if they occured in-between our weather recording intervals... More about our weather records

Advertising

Pulheim Weather History for the Previous 24 Hours

Scroll right to see more
 ConditionsComfort  
Time TempWeatherWind HumidityBarometerVisibility
3:20 pm
Sat, Jan 21
37 °FChilly.7 mph56%30.36 "HgN/A
2:20 pm37 °FPassing clouds.7 mph48%30.36 "HgN/A
1:20 pm36 °FPassing clouds.8 mph60%30.39 "HgN/A
12:20 pm36 °FPassing clouds.6 mph56%30.39 "HgN/A
11:20 am34 °FPassing clouds.6 mph60%30.39 "HgN/A
10:20 am28 °FScattered clouds.6 mph74%30.42 "HgN/A
9:20 am27 °FScattered clouds.5 mph74%30.42 "HgN/A
8:20 am27 °FPassing clouds.2 mph74%30.42 "HgN/A
7:20 am28 °FPassing clouds.5 mph69%30.39 "HgN/A
6:20 am27 °FPassing clouds.7 mph74%30.42 "HgN/A
5:20 am27 °FChilly.5 mph74%30.42 "HgN/A
4:20 am25 °FCold.6 mph80%30.42 "HgN/A
3:20 am23 °FCold.5 mph80%30.45 "HgN/A
2:20 am25 °FCold.6 mph74%30.45 "HgN/A
1:20 am23 °FCold.5 mph86%30.45 "HgN/A
12:20 am23 °FCold.3 mph86%30.48 "HgN/A
11:20 pm
Fri, Jan 20
25 °FPassing clouds.5 mph74%30.48 "HgN/A
10:20 pm25 °FPassing clouds.3 mph80%30.48 "HgN/A
9:20 pm27 °FPassing clouds.2 mph74%30.48 "HgN/A
8:20 pm28 °FPassing clouds.2 mph69%30.48 "HgN/A
7:20 pm30 °FPassing clouds.1 mph64%30.48 "HgN/A
6:20 pm28 °FPassing clouds.1 mph74%30.48 "HgN/A
5:20 pm34 °FPassing clouds.3 mph56%30.48 "HgN/A
4:20 pm37 °FPartly sunny.2 mph45%30.48 "HgN/A
Weather by CustomWeather, © 2017

See weather overviewHow to use our weather pages